Weather History for CYSF - December, 2012

Change the Weather History Date:

Sunday, December 16, 2012

  Actual Average Record
Temperature  
Mean Temperature -1 °F -  
Max Temperature 15 °F 1 °F 33 °F (2002)
Min Temperature -17 °F -13 °F -34 °F (2000)
Degree Days  
Heating Degree Days 66    
Moisture  
Dew Point -1 °F    
Average Humidity 86    
Maximum Humidity 93    
Minimum Humidity 72    
Precipitation  
Precipitation 0.00 in - - ()
Sea Level Pressure  
Sea Level Pressure 29.71 in    
Wind  
Wind Speed 5 mph ()    
Max Wind Speed 13 mph    
Max Gust Speed 18 mph    
Visibility 6.9 miles    
Events      
Averages and records for this station are not official NWS values.
T = Trace of Precipitation, MM = Missing Value Source: Averaged Metar Reports

Daily Weather History Graph

Daily Weather History Graph

Search for Another Location

Airport or City:

Trip Planner

Search our weather history database for the weather conditions in past years. The results will help you decide how hot, cold, wet, or windy it might be!

Date:

Astronomy

Dec. 16, 2012 Rise Set
Actual Time 9:55 AM CST 4:03 PM CST
Civil Twilight 9:00 AM CST 4:58 PM CST
Nautical Twilight 8:04 AM CST 5:53 PM CST
Astronomical Twilight 7:14 AM CST 6:43 PM CST
Moon 11:40 AM CST (12/16) 9:16 PM CST (12/16)
Length of Visible Light 7h 58m
Length of Day
6h 08m
Waxing Crescent, 16% of the Moon is Illuminated
Dec 16
Waxing Crescent
Dec 19
First Quarter
Dec 28
Full
Jan 4
Last Quarter
Jan 11
New

Hourly Weather History & Observations

Time (CST) Temp. Windchill Dew Point Humidity Pressure Visibility Wind Dir Wind Speed Gust Speed Precip Events Conditions
12:00 AM -6 °F - -10 °F 72% 29.77 in 10 mi ESE 5.8 mph - -   Overcast
12:00 AM -5.8 °F -18.4 °F -11.2 °F 77% 29.76 in 9.0 mi ESE 5.8 mph - N/A   Overcast
12:25 AM -5.8 °F -14.5 °F -9.4 °F 84% 29.77 in 9.0 mi ESE 3.5 mph - N/A   Overcast
1:00 AM -5.8 °F - -9.4 °F 84% 29.77 in 9.0 mi ESE 2.3 mph - N/A   Overcast
1:39 AM -4.0 °F -14.6 °F -7.6 °F 85% 29.76 in 5.0 mi East 4.6 mph - N/A   Overcast
1:44 AM -4.0 °F -16.3 °F -7.6 °F 85% 29.76 in 3.0 mi East 5.8 mph - N/A   Overcast
1:45 AM -4.0 °F -16.3 °F -7.6 °F 85% 29.76 in 2.5 mi East 5.8 mph - N/A   Overcast
1:47 AM -4.0 °F -16.3 °F -7.6 °F 85% 29.76 in 2.0 mi East 5.8 mph - N/A   Overcast
1:49 AM -4.0 °F -16.3 °F -7.6 °F 85% 29.76 in 2.5 mi East 5.8 mph - N/A   Overcast
1:51 AM -4.0 °F -14.6 °F -7.6 °F 85% 29.76 in 3.0 mi East 4.6 mph - N/A   Overcast
1:56 AM -4.0 °F -14.6 °F -7.6 °F 85% 29.76 in 8.0 mi East 4.6 mph - N/A   Overcast
2:00 AM -4.0 °F -14.6 °F -7.6 °F 85% 29.76 in 9.0 mi East 4.6 mph - N/A   Overcast
2:26 AM -4.0 °F -16.3 °F -5.8 °F 92% 29.75 in 5.0 mi East 5.8 mph - N/A   Overcast
2:29 AM -4.0 °F -16.3 °F -5.8 °F 92% 29.75 in 2.5 mi ESE 5.8 mph - N/A   Overcast
2:30 AM -2.2 °F -14.2 °F -5.8 °F 85% 29.75 in 2.2 mi ESE 5.8 mph - N/A   Overcast
2:35 AM -2.2 °F -12.5 °F -5.8 °F 85% 29.75 in 1.0 mi ESE 4.6 mph - N/A   Overcast
2:45 AM -2.2 °F -14.2 °F -5.8 °F 85% 29.75 in 1.0 mi ESE 5.8 mph - N/A   Overcast
3:00 AM -2.2 °F -12.5 °F -5.8 °F 85% 29.75 in 1.0 mi ESE 4.6 mph - N/A   Overcast
3:04 AM -2.2 °F -12.5 °F -5.8 °F 85% 29.75 in 1.5 mi ESE 4.6 mph - N/A   Overcast
3:07 AM -2.2 °F -10.4 °F -5.8 °F 85% 29.75 in 2.5 mi East 3.5 mph - N/A   Overcast
3:08 AM -2.2 °F -12.5 °F -5.8 °F 85% 29.75 in 3.0 mi East 4.6 mph - N/A   Overcast
3:12 AM -2.2 °F -12.5 °F -5.8 °F 85% 29.75 in 7.0 mi East 4.6 mph - N/A   Overcast
3:31 AM -2.2 °F -12.5 °F -5.8 °F 85% 29.74 in 9.0 mi East 4.6 mph - N/A   Overcast
4:00 AM -2.2 °F -12.5 °F -5.8 °F 85% 29.75 in 9.0 mi East 4.6 mph - N/A   Overcast
5:00 AM -2.2 °F -12.5 °F -5.8 °F 85% 29.74 in 9.0 mi ESE 4.6 mph - N/A   Clear
6:00 AM -1 °F - -5 °F 75% 29.73 in 10 mi East 5.8 mph - -  
7:00 AM -0.4 °F -10.4 °F -4.0 °F 85% 29.73 in 9.0 mi ESE 4.6 mph - N/A   Mostly Cloudy
8:00 AM 1.4 °F -6.2 °F -2.2 °F 85% 29.72 in 9.0 mi ESE 3.5 mph - N/A   Scattered Clouds
9:00 AM 1.4 °F -9.9 °F -2.2 °F 85% 29.72 in 9.0 mi ESE 5.8 mph - N/A   Scattered Clouds
10:00 AM 1.4 °F -11.3 °F -0.4 °F 92% 29.71 in 9.0 mi East 6.9 mph - N/A   Mostly Cloudy
11:00 AM 3.2 °F -9.1 °F 1.4 °F 92% 29.70 in 9.0 mi East 6.9 mph - N/A   Clear
12:00 PM 5 °F - 2 °F 84% 29.68 in 10 mi East 5.8 mph - -  
1:00 PM 6.8 °F -4.8 °F 3.2 °F 85% 29.66 in 9.0 mi East 6.9 mph - N/A   Clear
2:00 PM 8.6 °F -2.6 °F 6.8 °F 92% 29.64 in 9.0 mi East 6.9 mph - N/A   Clear
3:00 PM 12.2 °F -0.2 °F 10.4 °F 92% 29.62 in 9.0 mi East 9.2 mph - N/A   Clear
4:00 PM 14.0 °F -0.2 °F 12.2 °F 93% 29.60 in 9.0 mi East 12.7 mph - N/A   Clear
5:00 PM 15.8 °F 3.4 °F 12.2 °F 86% 29.61 in 9.0 mi East 10.4 mph 18.4 mph N/A   Scattered Clouds
6:00 PM 13 °F - 10 °F 79% 29.61 in 10 mi East 9.2 mph - -  
6:00 PM 14.0 °F 2.0 °F 10.4 °F 86% 29.61 in 9.0 mi East 9.2 mph - N/A   Clear
7:00 PM 12.2 °F 0.7 °F 8.6 °F 85% 29.61 in 9.0 mi East 8.1 mph - N/A   Scattered Clouds
8:00 PM 10.4 °F -1.5 °F 8.6 °F 92% 29.62 in 9.0 mi East 8.1 mph - N/A   Clear
9:00 PM 10.4 °F -1.5 °F 8.6 °F 92% 29.62 in 9.0 mi East 8.1 mph - N/A   Scattered Clouds
9:53 PM 12.2 °F 1.7 °F 8.6 °F 85% 29.62 in 9.0 mi East 6.9 mph - N/A   Mostly Cloudy
10:00 PM 12.2 °F 0.7 °F 10.4 °F 92% 29.61 in 9.0 mi East 8.1 mph - N/A   Mostly Cloudy
11:00 PM 14.0 °F 2.9 °F 10.4 °F 86% 29.61 in 9.0 mi East 8.1 mph - N/A   Overcast